DLH1ST EDDF-EDDN

Flight info

Callsign DLH1ST
Flight time 0h 21m
Altitude 21000
Route CINDY5S CINDY Z74 HAREM T104 ELMOX DCT LETKU LETKU1T
Aircraft A320/M-SDE3FGHIRWY/LB1

Departure

Time 2026-04-15 13:02
Airport Frankfurt Main Airport (EDDF)

Arrival

Time 2026-04-15 13:23
Airport Nuremberg Airport (EDDN)
Time Latitude Longitude Altitude Speed Heading
2026-04-15 12:37 50.04366 8.57013 360 ft 0 kts 160°
2026-04-15 12:57 50.04360 8.57016 360 ft 5 kts 160°
2026-04-15 12:57 50.04315 8.57017 360 ft 12 kts 210°
2026-04-15 12:57 50.04272 8.56876 360 ft 14 kts 252°
2026-04-15 12:57 50.04232 8.56715 360 ft 20 kts 249°
2026-04-15 12:58 50.04175 8.56477 358 ft 25 kts 250°
2026-04-15 12:58 50.04111 8.56211 352 ft 27 kts 249°
2026-04-15 12:58 50.04044 8.55927 353 ft 29 kts 249°
2026-04-15 12:58 50.03971 8.55628 356 ft 30 kts 249°
2026-04-15 12:59 50.03821 8.55000 355 ft 31 kts 250°
2026-04-15 12:59 50.03761 8.54747 351 ft 21 kts 249°
2026-04-15 12:59 50.03707 8.54527 349 ft 23 kts 249°
2026-04-15 13:00 50.03649 8.54325 350 ft 13 kts 217°
2026-04-15 13:00 50.03568 8.54332 337 ft 11 kts 155°
2026-04-15 13:00 50.03514 8.54369 352 ft 8 kts 147°
2026-04-15 13:00 50.03507 8.54467 351 ft 15 kts 72°
2026-04-15 13:01 50.03554 8.54681 352 ft 42 kts 69°
2026-04-15 13:01 50.03740 8.55459 356 ft 107 kts 70°
2026-04-15 13:01 50.04059 8.56804 360 ft 156 kts 71°
2026-04-15 13:01 50.04457 8.58476 781 ft 167 kts 69°
2026-04-15 13:02 50.04892 8.60175 1487 ft 170 kts 68°
2026-04-15 13:02 50.05369 8.61867 2194 ft 171 kts 66°
2026-04-15 13:02 50.05893 8.63581 2679 ft 185 kts 65°
2026-04-15 13:02 50.06440 8.65514 2990 ft 207 kts 69°
2026-04-15 13:03 50.06912 8.67749 3440 ft 226 kts 75°
2026-04-15 13:03 50.07263 8.70159 4216 ft 229 kts 83°
2026-04-15 13:03 50.07294 8.72605 5155 ft 224 kts 98°
2026-04-15 13:03 50.07012 8.75017 5804 ft 236 kts 104°
2026-04-15 13:04 50.06599 8.77637 6126 ft 262 kts 106°
2026-04-15 13:04 50.06167 8.80497 6660 ft 279 kts 102°
2026-04-15 13:04 50.05868 8.83528 7386 ft 287 kts 97°
2026-04-15 13:04 50.05839 8.86618 8318 ft 286 kts 89°
2026-04-15 13:05 50.05821 8.89722 9178 ft 289 kts 100°
2026-04-15 13:05 50.05256 8.92727 9963 ft 292 kts 111°
2026-04-15 13:05 50.04542 8.95718 10619 ft 302 kts 112°
2026-04-15 13:05 50.03770 8.98881 10867 ft 325 kts 112°
2026-04-15 13:06 50.02935 9.02283 11109 ft 346 kts 112°
2026-04-15 13:06 50.02079 9.05779 11665 ft 354 kts 112°
2026-04-15 13:06 50.01200 9.09386 12350 ft 359 kts 111°
2026-04-15 13:06 50.00311 9.13041 13045 ft 363 kts 111°
2026-04-15 13:07 49.99390 9.16715 13728 ft 367 kts 115°
2026-04-15 13:07 49.98311 9.20331 14365 ft 371 kts 116°
2026-04-15 13:07 49.97165 9.23944 14970 ft 374 kts 117°
2026-04-15 13:07 49.95983 9.27565 15590 ft 378 kts 118°
2026-04-15 13:08 49.94781 9.31211 16048 ft 381 kts 118°
2026-04-15 13:08 49.93570 9.34886 16191 ft 385 kts 118°
2026-04-15 13:08 49.92334 9.38669 16216 ft 399 kts 117°
2026-04-15 13:08 49.91080 9.42537 16216 ft 402 kts 117°
2026-04-15 13:09 49.89827 9.46420 16215 ft 403 kts 117°
2026-04-15 13:09 49.88577 9.50300 16216 ft 403 kts 117°
2026-04-15 13:09 49.87322 9.54194 16214 ft 403 kts 117°
2026-04-15 13:09 49.86065 9.58075 16214 ft 403 kts 117°
2026-04-15 13:10 49.84802 9.61956 16215 ft 403 kts 118°
2026-04-15 13:10 49.83537 9.65838 16225 ft 403 kts 118°
2026-04-15 13:10 49.82279 9.69706 16222 ft 403 kts 117°
2026-04-15 13:10 49.81011 9.73590 16225 ft 404 kts 118°
2026-04-15 13:11 49.79742 9.77462 16220 ft 403 kts 118°
2026-04-15 13:11 49.78489 9.81281 15990 ft 392 kts 118°
2026-04-15 13:11 49.77267 9.84994 15697 ft 383 kts 118°
2026-04-15 13:11 49.76065 9.88651 15232 ft 380 kts 118°
2026-04-15 13:12 49.74868 9.92281 14730 ft 378 kts 118°
2026-04-15 13:12 49.73691 9.95847 14229 ft 377 kts 117°
2026-04-15 13:12 49.72484 9.99496 13687 ft 375 kts 117°
2026-04-15 13:12 49.71317 10.03023 13172 ft 372 kts 117°
2026-04-15 13:13 49.70143 10.06564 12660 ft 369 kts 117°
2026-04-15 13:13 49.68981 10.10071 12146 ft 366 kts 117°
2026-04-15 13:13 49.67827 10.13550 11639 ft 363 kts 117°
2026-04-15 13:13 49.66679 10.17003 11110 ft 360 kts 117°
2026-04-15 13:14 49.65541 10.20422 10591 ft 357 kts 118°
2026-04-15 13:14 49.64407 10.23820 10057 ft 355 kts 118°
2026-04-15 13:14 49.63281 10.27192 9501 ft 352 kts 118°
2026-04-15 13:14 49.62169 10.30522 8970 ft 348 kts 118°
2026-04-15 13:15 49.61067 10.33819 8393 ft 345 kts 118°
2026-04-15 13:15 49.59963 10.37117 7819 ft 344 kts 118°
2026-04-15 13:15 49.58881 10.40338 7222 ft 336 kts 118°
2026-04-15 13:15 49.57810 10.43516 6747 ft 331 kts 118°
2026-04-15 13:16 49.56776 10.46587 6649 ft 315 kts 118°
2026-04-15 13:16 49.55798 10.49520 6523 ft 301 kts 116°
2026-04-15 13:16 49.55170 10.52520 6389 ft 289 kts 101°
2026-04-15 13:16 49.54891 10.55516 6262 ft 277 kts 99°
2026-04-15 13:17 49.54628 10.58383 6146 ft 264 kts 99°
2026-04-15 13:17 49.54371 10.61112 6032 ft 252 kts 100°
2026-04-15 13:17 49.54123 10.63717 5921 ft 241 kts 100°
2026-04-15 13:17 49.53885 10.66214 5819 ft 230 kts 100°
2026-04-15 13:18 49.53658 10.68591 5729 ft 226 kts 100°
2026-04-15 13:18 49.53431 10.70974 5627 ft 225 kts 99°
2026-04-15 13:18 49.53197 10.73374 5295 ft 229 kts 99°
2026-04-15 13:18 49.52960 10.75810 4963 ft 230 kts 100°
2026-04-15 13:19 49.52730 10.78220 4639 ft 224 kts 99°
2026-04-15 13:19 49.52508 10.80547 4335 ft 217 kts 99°
2026-04-15 13:19 49.52290 10.82831 4045 ft 214 kts 99°
2026-04-15 13:19 49.52077 10.85047 3761 ft 205 kts 99°
2026-04-15 13:20 49.51874 10.87161 3516 ft 191 kts 99°
2026-04-15 13:20 49.51689 10.89092 3255 ft 174 kts 99°
2026-04-15 13:20 49.51576 10.90261 3146 ft 159 kts 99°
2026-04-15 13:20 49.51422 10.91904 2899 ft 154 kts 98°
2026-04-15 13:21 49.51289 10.93496 2718 ft 147 kts 99°
2026-04-15 13:21 49.51126 10.95063 2428 ft 150 kts 100°
2026-04-15 13:21 49.50979 10.96628 2260 ft 146 kts 98°
2026-04-15 13:21 49.50829 10.98174 2059 ft 148 kts 100°
2026-04-15 13:22 49.50667 10.99739 1866 ft 147 kts 96°
2026-04-15 13:22 49.50530 11.01301 1652 ft 147 kts 102°
2026-04-15 13:22 49.50360 11.02847 1482 ft 145 kts 97°
2026-04-15 13:22 49.50217 11.04396 1270 ft 147 kts 101°
2026-04-15 13:23 49.50057 11.05943 1086 ft 146 kts 100°
2026-04-15 13:23 49.49908 11.07411 1032 ft 124 kts 98°
2026-04-15 13:23 49.49819 11.08303 1029 ft 49 kts 99°
2026-04-15 13:23 49.49751 11.08579 1029 ft 16 kts 172°
2026-04-15 13:24 49.49686 11.08521 1031 ft 9 kts 219°
2026-04-15 13:24 49.49651 11.08461 1030 ft 0 kts 234°
2026-04-15 13:24 49.49636 11.08429 1030 ft 10 kts 234°
2026-04-15 13:25 49.49589 11.08367 1032 ft 7 kts 199°
2026-04-15 13:25 49.49546 11.08339 1032 ft 6 kts 219°
2026-04-15 13:25 49.49536 11.08260 1031 ft 11 kts 276°
2026-04-15 13:25 49.49552 11.08139 1030 ft 11 kts 275°
2026-04-15 13:26 49.49565 11.07985 1030 ft 18 kts 279°
2026-04-15 13:26 49.49580 11.07840 1030 ft 10 kts 279°
2026-04-15 13:26 49.49582 11.07812 1030 ft 1 kts 279°
2026-04-15 13:26 49.49581 11.07809 1030 ft 1 kts 260°
2026-04-15 13:27 49.49572 11.07805 1026 ft 3 kts 201°
2026-04-15 13:27 49.49538 11.07796 1028 ft 6 kts 188°
2026-04-15 13:27 49.49518 11.07791 1027 ft 1 kts 188°
2026-04-15 13:27 49.49516 11.07791 1027 ft 0 kts 188°